| time (UTC) | temp F | wind direction | speed MPH | gust MPH | rain 1hr in | rain 24hr in | rain mn in | humidity % | barometer mb |
| 20260510063505 | 52 | 221 | 0.0 | 0.0 | 0.00 | 0.00 | 0.00 | 85 | 973.1 |
| 20260510063005 | 53 | 221 | 0.0 | 0.0 | 0.00 | 0.00 | 0.00 | 85 | 973.1 |
| 20260510062504 | 53 | 221 | 0.0 | 0.0 | 0.00 | 0.00 | 0.00 | 85 | 973.3 |
| 20260510062004 | 53 | 221 | 0.0 | 2.0 | 0.00 | 0.00 | 0.00 | 84 | 973.3 |
| 20260510061508 | 53 | 221 | 0.0 | 2.0 | 0.00 | 0.00 | 0.00 | 84 | 973.3 |
| 20260510061003 | 53 | 221 | 0.0 | 0.0 | 0.00 | 0.00 | 0.00 | 84 | 973.3 |
| 20260510060503 | 53 | 221 | 0.0 | 0.0 | 0.00 | 0.00 | 0.00 | 84 | 973.2 |
| 20260510060001 | 53 | 221 | 0.0 | 0.0 | 0.00 | 0.00 | 0.00 | 83 | 973.2 |
| 20260510055600 | 53 | 221 | 0.0 | 0.0 | 0.00 | 0.00 | 0.00 | 83 | 973.3 |
| 20260510055100 | 53 | 221 | 0.0 | 0.0 | 0.00 | 0.00 | 0.00 | 83 | 973.4 |
| 20260510054559 | 53 | 221 | 0.0 | 0.0 | 0.00 | 0.00 | 0.00 | 82 | 973.3 |
| 20260510054058 | 54 | 221 | 0.0 | 2.0 | 0.00 | 0.00 | 0.00 | 82 | 973.3 |
| 20260510053557 | 54 | 221 | 0.0 | 3.0 | 0.00 | 0.00 | 0.00 | 82 | 973.2 |
| 20260510053115 | 54 | 221 | 1.0 | 2.0 | 0.00 | 0.00 | 0.00 | 82 | 973.3 |
| 20260510052556 | 54 | 221 | 0.0 | 1.0 | 0.00 | 0.00 | 0.00 | 82 | 973.3 |
| 20260510052059 | 54 | 221 | 0.0 | 1.0 | 0.00 | 0.00 | 0.00 | 82 | 973.4 |
| 20260510051605 | 55 | 221 | 0.0 | 3.0 | 0.00 | 0.00 | 0.00 | 82 | 973.3 |
| 20260510051055 | 55 | 221 | 1.0 | 3.0 | 0.00 | 0.00 | 0.00 | 82 | 973.4 |
| 20260510050557 | 54 | 221 | 0.0 | 3.0 | 0.00 | 0.00 | 0.00 | 82 | 973.3 |
| 20260510050107 | 54 | 221 | 0.0 | 2.0 | 0.00 | 0.00 | 0.00 | 81 | 973.3 |
| 20260510045554 | 55 | 221 | 0.0 | 0.0 | 0.00 | 0.00 | 0.00 | 81 | 973.3 |
| 20260510045056 | 55 | 221 | 0.0 | 0.0 | 0.00 | 0.00 | 0.00 | 81 | 973.2 |
| 20260510044604 | 55 | 221 | 0.0 | 0.0 | 0.00 | 0.00 | 0.00 | 81 | 973.2 |
| 20260510044052 | 55 | 221 | 0.0 | 0.0 | 0.00 | 0.00 | 0.00 | 81 | 973.1 |
| 20260510043552 | 55 | 221 | 0.0 | 0.0 | 0.00 | 0.00 | 0.00 | 81 | 973.1 |
| 20260510043057 | 55 | 221 | 0.0 | 0.0 | 0.00 | 0.00 | 0.00 | 81 | 973.3 |
| 20260510042551 | 55 | 221 | 0.0 | 0.0 | 0.00 | 0.00 | 0.00 | 80 | 973.2 |
| 20260510042052 | 55 | 221 | 0.0 | 0.0 | 0.00 | 0.00 | 0.00 | 80 | 973.3 |
| 20260510041548 | 55 | 221 | 0.0 | 0.0 | 0.00 | 0.00 | 0.00 | 80 | 973.2 |
| 20260510041048 | 55 | 221 | 0.0 | 0.0 | 0.00 | 0.00 | 0.00 | 79 | 973.2 |
| 20260510040547 | 56 | 221 | 0.0 | 0.0 | 0.00 | 0.00 | 0.00 | 79 | 973.1 |
| 20260510040047 | 56 | 221 | 0.0 | 0.0 | 0.00 | 0.00 | 0.00 | 79 | 973.1 |
| 20260510035545 | 56 | 221 | 0.0 | 0.0 | 0.00 | 0.00 | 0.00 | 79 | 973.0 |
| 20260510035045 | 56 | 221 | 0.0 | 0.0 | 0.00 | 0.00 | 0.00 | 78 | 973.0 |
| 20260510034545 | 56 | 221 | 0.0 | 0.0 | 0.00 | 0.00 | 0.00 | 78 | 973.1 |
| 20260510034046 | 56 | 221 | 0.0 | 0.0 | 0.00 | 0.00 | 0.00 | 78 | 973.1 |
| 20260510033547 | 56 | 221 | 0.0 | 0.0 | 0.00 | 0.00 | 0.00 | 77 | 973.0 |
| 20260510033057 | 56 | 221 | 0.0 | 0.0 | 0.00 | 0.00 | 0.00 | 77 | 972.9 |
| 20260510032548 | 57 | 221 | 0.0 | 0.0 | 0.00 | 0.00 | 0.00 | 76 | 972.9 |
| 20260510032044 | 57 | 221 | 0.0 | 0.0 | 0.00 | 0.00 | 0.00 | 76 | 972.8 |
| 20260510031545 | 57 | 221 | 0.0 | 0.0 | 0.00 | 0.00 | 0.00 | 75 | 972.8 |
| 20260510031043 | 57 | 221 | 0.0 | 0.0 | 0.00 | 0.00 | 0.00 | 75 | 972.8 |
| 20260510030544 | 57 | 221 | 0.0 | 0.0 | 0.00 | 0.00 | 0.00 | 75 | 972.7 |
| 20260510030100 | 57 | 221 | 0.0 | 0.0 | 0.00 | 0.00 | 0.00 | 74 | 972.7 |
| 20260510025544 | 57 | 221 | 0.0 | 0.0 | 0.00 | 0.00 | 0.00 | 74 | 972.7 |
| 20260510025043 | 58 | 221 | 0.0 | 0.0 | 0.00 | 0.00 | 0.00 | 73 | 972.6 |
| 20260510024543 | 58 | 221 | 0.0 | 0.0 | 0.00 | 0.00 | 0.00 | 73 | 972.6 |
| 20260510024043 | 58 | 221 | 0.0 | 0.0 | 0.00 | 0.00 | 0.00 | 73 | 972.5 |
| 20260510023542 | 58 | 221 | 0.0 | 0.0 | 0.00 | 0.00 | 0.00 | 74 | 972.5 |
| 20260510023043 | 58 | 221 | 0.0 | 0.0 | 0.00 | 0.00 | 0.00 | 74 | 972.5 |
| 20260510022542 | 58 | 221 | 0.0 | 0.0 | 0.00 | 0.00 | 0.00 | 74 | 972.5 |
| 20260510022042 | 58 | 221 | 0.0 | 0.0 | 0.00 | 0.00 | 0.00 | 73 | 972.5 |
| 20260510021543 | 58 | 221 | 0.0 | 0.0 | 0.00 | 0.00 | 0.00 | 73 | 972.4 |
| 20260510021042 | 58 | 221 | 0.0 | 0.0 | 0.00 | 0.00 | 0.00 | 72 | 972.3 |
| 20260510020542 | 59 | 221 | 0.0 | 0.0 | 0.00 | 0.00 | 0.00 | 72 | 972.4 |
| 20260510020042 | 59 | 221 | 0.0 | 0.0 | 0.00 | 0.00 | 0.00 | 71 | 972.3 |
| 20260510015541 | 59 | 221 | 0.0 | 1.0 | 0.00 | 0.00 | 0.00 | 70 | 972.2 |
| 20260510015041 | 60 | 221 | 0.0 | 1.0 | 0.00 | 0.00 | 0.00 | 69 | 972.1 |
| 20260510014542 | 60 | 221 | 0.0 | 2.0 | 0.00 | 0.00 | 0.00 | 68 | 972.0 |
| 20260510014041 | 60 | 221 | 0.0 | 2.0 | 0.00 | 0.00 | 0.00 | 67 | 971.9 |
| 20260510013541 | 61 | 221 | 0.0 | 1.0 | 0.00 | 0.00 | 0.00 | 67 | 971.7 |
| 20260510013040 | 61 | 221 | 0.0 | 2.0 | 0.00 | 0.00 | 0.00 | 67 | 971.6 |
| 20260510012541 | 61 | 221 | 0.0 | 2.0 | 0.00 | 0.00 | 0.00 | 66 | 971.4 |
| 20260510012040 | 62 | 221 | 0.0 | 3.0 | 0.00 | 0.00 | 0.00 | 65 | 971.4 |
| 20260510011541 | 62 | 221 | 0.0 | 3.0 | 0.00 | 0.00 | 0.00 | 65 | 971.2 |
| 20260510011039 | 62 | 221 | 0.0 | 2.0 | 0.00 | 0.00 | 0.00 | 65 | 971.3 |
| 20260510010540 | 62 | 221 | 0.0 | 2.0 | 0.00 | 0.00 | 0.00 | 65 | 971.1 |
| 20260510010040 | 62 | 221 | 0.0 | 2.0 | 0.00 | 0.00 | 0.00 | 64 | 971.1 |
| 20260510005540 | 63 | 221 | 0.0 | 3.0 | 0.00 | 0.00 | 0.00 | 64 | 971.1 |
| 20260510005039 | 63 | 221 | 1.0 | 3.0 | 0.00 | 0.00 | 0.00 | 63 | 971.0 |
| 20260510004541 | 64 | 221 | 1.0 | 3.0 | 0.00 | 0.00 | 0.00 | 62 | 970.9 |
| 20260510004039 | 65 | 221 | 1.0 | 3.0 | 0.00 | 0.00 | 0.00 | 61 | 970.9 |
| 20260510003539 | 65 | 221 | 1.0 | 3.0 | 0.00 | 0.00 | 0.00 | 59 | 970.9 |
| 20260510003046 | 66 | 221 | 2.0 | 3.0 | 0.00 | 0.00 | 0.00 | 57 | 970.9 |
| 20260510002538 | 67 | 221 | 0.0 | 2.0 | 0.00 | 0.00 | 0.00 | 55 | 970.9 |
| 20260510002038 | 68 | 221 | 0.0 | 2.0 | 0.00 | 0.00 | 0.00 | 53 | 970.8 |
| 20260510001539 | 69 | 221 | 0.0 | 2.0 | 0.00 | 0.00 | 0.00 | 50 | 970.8 |
| 20260510001038 | 69 | 221 | 0.0 | 5.0 | 0.00 | 0.00 | 0.00 | 52 | 970.6 |
| 20260510000540 | 70 | 237 | 1.0 | 4.0 | 0.00 | 0.00 | 0.00 | 50 | 970.6 |
| 20260510000138 | 70 | 238 | 0.0 | 2.0 | 0.00 | 0.00 | 0.00 | 51 | 970.4 |
| 20260509235537 | 71 | 238 | 0.0 | 5.0 | 0.00 | 0.00 | 0.00 | 49 | 970.4 |
| 20260509235041 | 71 | 238 | 1.0 | 5.0 | 0.00 | 0.00 | 0.00 | 49 | 970.4 |
| 20260509234551 | 71 | 240 | 1.0 | 5.0 | 0.00 | 0.00 | 0.00 | 46 | 970.3 |
| 20260509234039 | 71 | 239 | 1.0 | 4.0 | 0.00 | 0.00 | 0.00 | 47 | 970.2 |
| 20260509233541 | 72 | 206 | 1.0 | 7.0 | 0.00 | 0.00 | 0.00 | 46 | 970.1 |
| 20260509233038 | 72 | 267 | 0.0 | 7.0 | 0.00 | 0.00 | 0.00 | 45 | 970.0 |
| 20260509232536 | 72 | 266 | 1.0 | 4.0 | 0.00 | 0.00 | 0.00 | 44 | 970.1 |
| 20260509232037 | 73 | 219 | 0.0 | 4.0 | 0.00 | 0.00 | 0.00 | 44 | 970.1 |
| 20260509231537 | 73 | 219 | 1.0 | 5.0 | 0.00 | 0.00 | 0.00 | 44 | 970.0 |
| 20260509231036 | 73 | 254 | 1.0 | 5.0 | 0.00 | 0.00 | 0.00 | 44 | 970.0 |
| 20260509230536 | 73 | 233 | 1.0 | 5.0 | 0.00 | 0.00 | 0.00 | 44 | 969.8 |
| 20260509230040 | 74 | 15 | 3.0 | 10.0 | 0.00 | 0.00 | 0.00 | 44 | 969.8 |
| 20260509225536 | 74 | 178 | 3.0 | 10.0 | 0.00 | 0.00 | 0.00 | 43 | 969.8 |
| 20260509225035 | 74 | 254 | 2.0 | 7.0 | 0.00 | 0.00 | 0.00 | 47 | 969.8 |
| 20260509224535 | 74 | 271 | 1.0 | 4.0 | 0.00 | 0.00 | 0.00 | 47 | 969.7 |
| 20260509224037 | 74 | 30 | 0.0 | 6.0 | 0.00 | 0.00 | 0.00 | 46 | 969.7 |
| 20260509223536 | 74 | 190 | 0.0 | 5.0 | 0.00 | 0.00 | 0.00 | 47 | 969.7 |
| 20260509223040 | 74 | 226 | 1.0 | 3.0 | 0.00 | 0.00 | 0.00 | 46 | 969.8 |
| 20260509222538 | 75 | 218 | 0.0 | 4.0 | 0.00 | 0.00 | 0.00 | 46 | 969.7 |
| 20260509222036 | 75 | 213 | 2.0 | 6.0 | 0.00 | 0.00 | 0.00 | 44 | 969.6 |
| 20260509221537 | 75 | 208 | 0.0 | 8.0 | 0.00 | 0.00 | 0.00 | 45 | 969.7 |
| 20260509221034 | 75 | 190 | 2.0 | 7.0 | 0.00 | 0.00 | 0.00 | 44 | 969.7 |
| 20260509220533 | 76 | 252 | 1.0 | 12.0 | 0.00 | 0.00 | 0.00 | 44 | 969.7 |
| 20260509220034 | 77 | 197 | 3.0 | 12.0 | 0.00 | 0.00 | 0.00 | 42 | 969.6 |
| 20260509215536 | 76 | 26 | 3.0 | 8.0 | 0.00 | 0.00 | 0.00 | 43 | 969.6 |
| 20260509215033 | 75 | 254 | 2.0 | 9.0 | 0.00 | 0.00 | 0.00 | 44 | 969.5 |
| 20260509214533 | 75 | 207 | 2.0 | 9.0 | 0.00 | 0.00 | 0.00 | 43 | 969.6 |
| 20260509214032 | 75 | 22 | 1.0 | 6.0 | 0.00 | 0.00 | 0.00 | 45 | 969.5 |
| 20260509213532 | 75 | 104 | 2.0 | 6.0 | 0.00 | 0.00 | 0.00 | 45 | 969.5 |
| 20260509213033 | 76 | 13 | 1.0 | 9.0 | 0.00 | 0.00 | 0.00 | 44 | 969.4 |
| 20260509212536 | 76 | 270 | 2.0 | 9.0 | 0.00 | 0.00 | 0.00 | 43 | 969.3 |
| 20260509212034 | 76 | 360 | 3.0 | 8.0 | 0.00 | 0.00 | 0.00 | 44 | 969.2 |
| 20260509211532 | 76 | 269 | 2.0 | 8.0 | 0.00 | 0.00 | 0.00 | 44 | 969.1 |
| 20260509211032 | 76 | 30 | 2.0 | 8.0 | 0.00 | 0.00 | 0.00 | 44 | 969.2 |
| 20260509210534 | 76 | 17 | 1.0 | 8.0 | 0.00 | 0.00 | 0.00 | 43 | 969.2 |
| 20260509210035 | 76 | 250 | 1.0 | 4.0 | 0.00 | 0.00 | 0.00 | 44 | 969.2 |
| 20260509205532 | 76 | 248 | 1.0 | 6.0 | 0.00 | 0.00 | 0.00 | 44 | 969.2 |
| 20260509205032 | 76 | 55 | 1.0 | 6.0 | 0.00 | 0.00 | 0.00 | 43 | 969.1 |
| 20260509204531 | 76 | 223 | 1.0 | 5.0 | 0.00 | 0.00 | 0.00 | 44 | 969.2 |
| 20260509204031 | 76 | 254 | 1.0 | 7.0 | 0.00 | 0.00 | 0.00 | 43 | 969.0 |
| 20260509203530 | 76 | 271 | 1.0 | 8.0 | 0.00 | 0.00 | 0.00 | 43 | 969.0 |
| 20260509203029 | 76 | 15 | 3.0 | 7.0 | 0.00 | 0.00 | 0.00 | 42 | 969.0 |
| 20260509202530 | 76 | 13 | 3.0 | 9.0 | 0.00 | 0.00 | 0.00 | 42 | 969.1 |
| 20260509202030 | 77 | 10 | 2.0 | 11.0 | 0.00 | 0.00 | 0.00 | 42 | 969.0 |
| 20260509201529 | 77 | 275 | 4.0 | 11.0 | 0.00 | 0.00 | 0.00 | 41 | 968.9 |
| 20260509201031 | 76 | 48 | 3.0 | 9.0 | 0.00 | 0.00 | 0.00 | 42 | 969.0 |
| 20260509200532 | 77 | 22 | 5.0 | 9.0 | 0.00 | 0.00 | 0.00 | 42 | 968.9 |
| 20260509200029 | 76 | 360 | 3.0 | 9.0 | 0.00 | 0.00 | 0.00 | 42 | 969.0 |
| 20260509195531 | 76 | 10 | 1.0 | 10.0 | 0.00 | 0.00 | 0.00 | 42 | 968.9 |
| 20260509195028 | 76 | 271 | 4.0 | 10.0 | 0.00 | 0.00 | 0.00 | 43 | 969.0 |
| 20260509194526 | 76 | 13 | 3.0 | 13.0 | 0.00 | 0.00 | 0.00 | 43 | 969.0 |
| 20260509194026 | 77 | 43 | 5.0 | 13.0 | 0.00 | 0.00 | 0.00 | 42 | 969.0 |
| 20260509193526 | 78 | 23 | 3.0 | 6.0 | 0.00 | 0.00 | 0.00 | 41 | 969.0 |
| 20260509193033 | 79 | 270 | 3.0 | 8.0 | 0.00 | 0.00 | 0.00 | 42 | 969.1 |
| 20260509192525 | 78 | 73 | 3.0 | 9.0 | 0.00 | 0.00 | 0.00 | 41 | 969.0 |
| 20260509192027 | 78 | 271 | 3.0 | 10.0 | 0.00 | 0.00 | 0.00 | 42 | 969.0 |
| 20260509191523 | 78 | 44 | 4.0 | 11.0 | 0.00 | 0.00 | 0.00 | 42 | 969.2 |
| 20260509191022 | 77 | 5 | 2.0 | 15.0 | 0.00 | 0.00 | 0.00 | 43 | 969.2 |
| 20260509190522 | 77 | 26 | 3.0 | 15.0 | 0.00 | 0.00 | 0.00 | 45 | 969.3 |
| 20260509190023 | 77 | 274 | 2.0 | 6.0 | 0.00 | 0.00 | 0.00 | 43 | 969.3 |
| 20260509185521 | 77 | 271 | 1.0 | 7.0 | 0.00 | 0.00 | 0.00 | 45 | 969.4 |
| 20260509185021 | 77 | 271 | 3.0 | 7.0 | 0.00 | 0.00 | 0.00 | 43 | 969.4 |
| 20260509184526 | 77 | 231 | 3.0 | 7.0 | 0.00 | 0.00 | 0.00 | 42 | 969.5 |
| 20260509184020 | 78 | 360 | 2.0 | 8.0 | 0.00 | 0.00 | 0.00 | 42 | 969.4 |
| 20260509183519 | 78 | 19 | 2.0 | 10.0 | 0.00 | 0.00 | 0.00 | 46 | 969.4 |
| 20260509183018 | 77 | 271 | 3.0 | 10.0 | 0.00 | 0.00 | 0.00 | 43 | 969.5 |
| 20260509182517 | 77 | 267 | 3.0 | 10.0 | 0.00 | 0.00 | 0.00 | 42 | 969.5 |
| 20260509182016 | 77 | 23 | 3.0 | 10.0 | 0.00 | 0.00 | 0.00 | 43 | 969.5 |
| 20260509181515 | 77 | 26 | 1.0 | 12.0 | 0.00 | 0.00 | 0.00 | 44 | 969.6 |
| 20260509181018 | 77 | 360 | 2.0 | 12.0 | 0.00 | 0.00 | 0.00 | 45 | 969.8 |
| 20260509180515 | 76 | 14 | 2.0 | 9.0 | 0.00 | 0.00 | 0.00 | 44 | 969.8 |
| 20260509180013 | 77 | 63 | 2.0 | 8.0 | 0.00 | 0.00 | 0.00 | 45 | 969.9 |
| 20260509175513 | 77 | 207 | 2.0 | 5.0 | 0.00 | 0.00 | 0.00 | 46 | 969.9 |
| 20260509175014 | 76 | 144 | 1.0 | 8.0 | 0.00 | 0.00 | 0.00 | 45 | 970.0 |
| 20260509174514 | 77 | 172 | 3.0 | 10.0 | 0.00 | 0.00 | 0.00 | 45 | 970.1 |
| 20260509174014 | 75 | 15 | 4.0 | 10.0 | 0.00 | 0.00 | 0.00 | 44 | 970.0 |
| 20260509173509 | 75 | 360 | 2.0 | 8.0 | 0.00 | 0.00 | 0.00 | 46 | 969.9 |
| 20260509173009 | 75 | 23 | 2.0 | 8.0 | 0.00 | 0.00 | 0.00 | 48 | 970.1 |
| 20260509172512 | 75 | 39 | 1.0 | 9.0 | 0.00 | 0.00 | 0.00 | 53 | 970.2 |
| 20260509172007 | 74 | 270 | 2.0 | 8.0 | 0.00 | 0.00 | 0.00 | 56 | 970.2 |
| 20260509171508 | 73 | 28 | 2.0 | 8.0 | 0.00 | 0.00 | 0.00 | 57 | 970.3 |
| 20260509171005 | 72 | 360 | 1.0 | 6.0 | 0.00 | 0.00 | 0.00 | 58 | 970.3 |
| 20260509170505 | 71 | 360 | 1.0 | 6.0 | 0.00 | 0.00 | 0.00 | 58 | 970.4 |
| 20260509170004 | 73 | 43 | 3.0 | 8.0 | 0.00 | 0.00 | 0.00 | 56 | 970.5 |
| 20260509165503 | 74 | 37 | 4.0 | 8.0 | 0.00 | 0.00 | 0.00 | 57 | 970.6 |
| 20260509165003 | 73 | 23 | 2.0 | 8.0 | 0.00 | 0.00 | 0.00 | 59 | 970.6 |
| 20260509164501 | 72 | 15 | 1.0 | 6.0 | 0.00 | 0.00 | 0.00 | 63 | 970.8 |
| 20260509164001 | 72 | 11 | 2.0 | 8.0 | 0.00 | 0.00 | 0.00 | 58 | 970.9 |
| 20260509163600 | 72 | 27 | 2.0 | 8.0 | 0.00 | 0.00 | 0.00 | 59 | 971.0 |
| 20260509163119 | 72 | 33 | 2.0 | 8.0 | 0.00 | 0.00 | 0.00 | 58 | 970.9 |
| 20260509162559 | 71 | 28 | 3.0 | 8.0 | 0.00 | 0.00 | 0.00 | 59 | 971.0 |
| 20260509162100 | 72 | 5 | 1.0 | 4.0 | 0.00 | 0.00 | 0.00 | 57 | 970.9 |
| 20260509161559 | 72 | 5 | 0.0 | 11.0 | 0.00 | 0.00 | 0.00 | 61 | 970.9 |
| 20260509161058 | 71 | 44 | 2.0 | 11.0 | 0.00 | 0.00 | 0.00 | 58 | 970.9 |
| 20260509160559 | 72 | 181 | 3.0 | 8.0 | 0.00 | 0.00 | 0.00 | 58 | 970.7 |
| 20260509160058 | 73 | 14 | 3.0 | 5.0 | 0.00 | 0.00 | 0.00 | 56 | 970.8 |
| 20260509155556 | 72 | 24 | 2.0 | 6.0 | 0.00 | 0.00 | 0.00 | 59 | 970.8 |
| 20260509155055 | 72 | 263 | 0.0 | 8.0 | 0.00 | 0.00 | 0.00 | 57 | 970.7 |
| 20260509154554 | 71 | 28 | 2.0 | 12.0 | 0.00 | 0.00 | 0.00 | 60 | 970.8 |
| 20260509154057 | 70 | 35 | 4.0 | 12.0 | 0.00 | 0.00 | 0.00 | 58 | 970.8 |
| 20260509153556 | 70 | 270 | 2.0 | 9.0 | 0.00 | 0.00 | 0.00 | 59 | 970.9 |
| 20260509153052 | 71 | 9 | 2.0 | 6.0 | 0.00 | 0.00 | 0.00 | 61 | 971.0 |
| 20260509152555 | 70 | 82 | 2.0 | 10.0 | 0.00 | 0.00 | 0.00 | 63 | 971.4 |
| 20260509152051 | 69 | 270 | 4.0 | 10.0 | 0.00 | 0.00 | 0.00 | 63 | 971.4 |
| 20260509151549 | 69 | 26 | 1.0 | 7.0 | 0.00 | 0.00 | 0.00 | 65 | 971.5 |
| 20260509151051 | 68 | 49 | 4.0 | 7.0 | 0.00 | 0.00 | 0.00 | 65 | 971.4 |
| 20260509150547 | 68 | 24 | 2.0 | 8.0 | 0.00 | 0.00 | 0.00 | 63 | 971.5 |
| 20260509145545 | 67 | 5 | 0.0 | 5.0 | 0.00 | 0.00 | 0.00 | 65 | 971.1 |
| 20260509145046 | 66 | 5 | 1.0 | 5.0 | 0.00 | 0.00 | 0.00 | 67 | 971.4 |
| 20260509144630 | 66 | 24 | 2.0 | 8.0 | 0.00 | 0.00 | 0.00 | 67 | 971.5 |
| 20260509144044 | 65 | 17 | 3.0 | 6.0 | 0.00 | 0.00 | 0.00 | 67 | 971.6 |
| 20260509143539 | 65 | 16 | 1.0 | 3.0 | 0.00 | 0.00 | 0.00 | 70 | 971.6 |
| 20260509143045 | 64 | 17 | 0.0 | 6.0 | 0.00 | 0.00 | 0.00 | 69 | 971.8 |
| 20260509142538 | 63 | 270 | 1.0 | 6.0 | 0.00 | 0.00 | 0.00 | 72 | 971.9 |
| 20260509142035 | 62 | 270 | 1.0 | 6.0 | 0.00 | 0.00 | 0.00 | 72 | 971.9 |
| 20260509141541 | 61 | 270 | 1.0 | 4.0 | 0.00 | 0.00 | 0.00 | 73 | 971.9 |
| 20260509141035 | 60 | 270 | 1.0 | 4.0 | 0.00 | 0.00 | 0.00 | 73 | 972.0 |
| 20260509140534 | 60 | 270 | 2.0 | 4.0 | 0.00 | 0.00 | 0.00 | 73 | 972.1 |
| 20260509140031 | 60 | 270 | 2.0 | 4.0 | 0.00 | 0.00 | 0.00 | 74 | 971.9 |
| 20260509135532 | 59 | 270 | 0.0 | 2.0 | 0.00 | 0.00 | 0.00 | 74 | 972.0 |
| 20260509135028 | 59 | 270 | 0.0 | 3.0 | 0.00 | 0.00 | 0.00 | 74 | 972.0 |
| 20260509134528 | 59 | 270 | 0.0 | 4.0 | 0.00 | 0.00 | 0.00 | 74 | 972.0 |
| 20260509134026 | 58 | 270 | 1.0 | 3.0 | 0.00 | 0.00 | 0.00 | 75 | 971.9 |
| 20260509133527 | 58 | 270 | 1.0 | 3.0 | 0.00 | 0.00 | 0.00 | 77 | 971.8 |
| 20260509133024 | 57 | 270 | 0.0 | 3.0 | 0.00 | 0.00 | 0.00 | 78 | 972.0 |
| 20260509132523 | 57 | 270 | 0.0 | 4.0 | 0.00 | 0.00 | 0.00 | 77 | 972.1 |
| 20260509132022 | 56 | 270 | 0.0 | 4.0 | 0.00 | 0.00 | 0.00 | 78 | 972.4 |
| 20260509131523 | 56 | 270 | 0.0 | 3.0 | 0.00 | 0.00 | 0.00 | 79 | 972.8 |
| 20260509131019 | 55 | 270 | 1.0 | 4.0 | 0.00 | 0.00 | 0.00 | 80 | 972.9 |
| 20260509130518 | 55 | 270 | 2.0 | 4.0 | 0.00 | 0.00 | 0.00 | 80 | 972.9 |
| 20260509130017 | 54 | 259 | 1.0 | 4.0 | 0.00 | 0.00 | 0.00 | 81 | 972.9 |
| 20260509125515 | 54 | 227 | 0.0 | 3.0 | 0.00 | 0.00 | 0.00 | 82 | 972.9 |
| 20260509125014 | 53 | 227 | 1.0 | 3.0 | 0.00 | 0.00 | 0.00 | 83 | 972.9 |
| 20260509124514 | 53 | 226 | 1.0 | 3.0 | 0.00 | 0.00 | 0.00 | 84 | 972.9 |
| 20260509124012 | 53 | 225 | 1.0 | 3.0 | 0.00 | 0.00 | 0.00 | 85 | 972.9 |
| 20260509123511 | 52 | 225 | 0.0 | 2.0 | 0.00 | 0.00 | 0.00 | 86 | 972.9 |
| 20260509123010 | 52 | 225 | 0.0 | 2.0 | 0.00 | 0.00 | 0.00 | 87 | 973.1 |
| 20260509122508 | 51 | 225 | 0.0 | 3.0 | 0.00 | 0.00 | 0.00 | 87 | 973.0 |
| 20260509122007 | 51 | 225 | 0.0 | 3.0 | 0.00 | 0.00 | 0.00 | 88 | 973.1 |
| 20260509121517 | 50 | 225 | 0.0 | 0.0 | 0.00 | 0.00 | 0.00 | 88 | 973.2 |
| 20260509121006 | 50 | 225 | 0.0 | 0.0 | 0.00 | 0.00 | 0.00 | 89 | 973.2 |
| 20260509120507 | 49 | 225 | 0.0 | 0.0 | 0.00 | 0.00 | 0.00 | 89 | 973.3 |
| 20260509120008 | 49 | 225 | 0.0 | 0.0 | 0.00 | 0.00 | 0.00 | 90 | 973.2 |
| 20260509115505 | 48 | 225 | 0.0 | 0.0 | 0.00 | 0.00 | 0.00 | 90 | 973.2 |
| 20260509115007 | 48 | 225 | 0.0 | 2.0 | 0.00 | 0.00 | 0.00 | 90 | 973.1 |
| 20260509114505 | 48 | 225 | 0.0 | 2.0 | 0.00 | 0.00 | 0.00 | 90 | 973.0 |
| 20260509114005 | 48 | 225 | 0.0 | 2.0 | 0.00 | 0.00 | 0.00 | 90 | 972.9 |
| 20260509113503 | 47 | 225 | 0.0 | 0.0 | 0.00 | 0.00 | 0.00 | 91 | 972.9 |
| 20260509113004 | 47 | 225 | 0.0 | 0.0 | 0.00 | 0.00 | 0.00 | 90 | 972.9 |
| 20260509112503 | 47 | 225 | 0.0 | 0.0 | 0.00 | 0.00 | 0.00 | 90 | 972.9 |
| 20260509112003 | 46 | 225 | 0.0 | 0.0 | 0.00 | 0.00 | 0.00 | 90 | 972.8 |
| 20260509111508 | 46 | 273 | 0.0 | 0.0 | 0.00 | 0.00 | 0.00 | 90 | 973.0 |
| 20260509111004 | 46 | 273 | 0.0 | 0.0 | 0.00 | 0.00 | 0.00 | 90 | 973.0 |
| 20260509110503 | 46 | 273 | 0.0 | 0.0 | 0.00 | 0.00 | 0.00 | 90 | 973.0 |
| 20260509110004 | 46 | 273 | 0.0 | 0.0 | 0.00 | 0.00 | 0.00 | 90 | 972.9 |
| 20260509105504 | 46 | 273 | 0.0 | 0.0 | 0.00 | 0.00 | 0.00 | 90 | 972.8 |
| 20260509105002 | 46 | 273 | 0.0 | 0.0 | 0.00 | 0.00 | 0.00 | 90 | 972.8 |
| 20260509104508 | 46 | 273 | 0.0 | 0.0 | 0.00 | 0.00 | 0.00 | 90 | 972.7 |
| 20260509104002 | 46 | 273 | 0.0 | 0.0 | 0.00 | 0.00 | 0.00 | 90 | 972.7 |
| 20260509103502 | 46 | 273 | 0.0 | 0.0 | 0.00 | 0.00 | 0.00 | 90 | 972.7 |
| 20260509103002 | 45 | 273 | 0.0 | 0.0 | 0.00 | 0.00 | 0.00 | 89 | 972.7 |
| 20260509102501 | 45 | 273 | 0.0 | 0.0 | 0.00 | 0.00 | 0.00 | 89 | 972.6 |
| 20260509102001 | 45 | 273 | 0.0 | 0.0 | 0.00 | 0.00 | 0.00 | 89 | 972.6 |
| 20260509101501 | 45 | 273 | 0.0 | 0.0 | 0.00 | 0.00 | 0.00 | 89 | 972.6 |
| 20260509101001 | 45 | 273 | 0.0 | 0.0 | 0.00 | 0.00 | 0.00 | 89 | 972.7 |
| 20260509100502 | 45 | 273 | 0.0 | 0.0 | 0.00 | 0.00 | 0.00 | 89 | 972.6 |
| 20260509100002 | 45 | 273 | 0.0 | 0.0 | 0.00 | 0.00 | 0.00 | 88 | 972.6 |
| 20260509095501 | 45 | 273 | 0.0 | 0.0 | 0.00 | 0.00 | 0.00 | 88 | 972.5 |
| 20260509074558 | 46 | 273 | 0.0 | 0.0 | 0.00 | 0.00 | 0.00 | 83 | 972.8 |
| 20260509074053 | 47 | 273 | 0.0 | 0.0 | 0.00 | 0.00 | 0.00 | 83 | 972.7 |
| 20260509073553 | 47 | 273 | 0.0 | 0.0 | 0.00 | 0.00 | 0.00 | 83 | 972.8 |
| 20260509073056 | 47 | 273 | 0.0 | 0.0 | 0.00 | 0.00 | 0.00 | 83 | 972.8 |
| 20260509072553 | 47 | 273 | 0.0 | 0.0 | 0.00 | 0.00 | 0.00 | 82 | 972.8 |
| 20260509072051 | 47 | 273 | 0.0 | 0.0 | 0.00 | 0.00 | 0.00 | 82 | 972.9 |
| 20260509071557 | 47 | 273 | 0.0 | 0.0 | 0.00 | 0.00 | 0.00 | 82 | 973.0 |
| 20260509071053 | 47 | 273 | 0.0 | 0.0 | 0.00 | 0.00 | 0.00 | 82 | 973.0 |
| 20260509070551 | 47 | 273 | 0.0 | 0.0 | 0.00 | 0.00 | 0.00 | 81 | 973.1 |
| 20260509070048 | 47 | 273 | 0.0 | 0.0 | 0.00 | 0.00 | 0.00 | 81 | 973.0 |
| 20260509065548 | 47 | 273 | 0.0 | 0.0 | 0.00 | 0.00 | 0.00 | 81 | 973.1 |
| 20260509065048 | 47 | 273 | 0.0 | 0.0 | 0.00 | 0.00 | 0.00 | 81 | 973.1 |
| 20260509064548 | 48 | 273 | 0.0 | 0.0 | 0.00 | 0.00 | 0.00 | 80 | 973.1 |
| 20260509064046 | 48 | 273 | 0.0 | 1.0 | 0.00 | 0.00 | 0.00 | 80 | 973.2 |